Tracking 27126 objects as of 30-Mar-2023
HD Live streaming from Space Station
objects crossing your sky now

STARLINK-4110

Track STARLINK-4110 now!
10-day predictions
STARLINK-4110 is classified as:


NORAD ID: 53166
Int'l Code: 2022-083AL
Perigee: 546.1 km
Apogee: 547.6 km
Inclination: 53.2 °
Period: 95.4 minutes
Semi major axis: 6917 km
RCS: Unknown
Launch date: July 17, 2022
Source: United States (US)
Launch site: AIR FORCE EASTERN TEST RANGE (AFETR)
Your satellite tracking list
Your tracking list is empty




NASA's NSSDC Master Catalog

Two Line Element Set (TLE):
1 53166U 22083AL  23088.88898159  .00004629  00000-0  30865-3 0  9999
2 53166  53.2157 313.5730 0001086 100.4187 259.6928 15.08847835 39589
Source of the keplerian elements: AFSPC